Location: Mascot Post Office (historical)
(40.2645°N, 99.5462°W)
Time: 09:15:03
(UTC+00:00)

NOSS 3-4 (C) - Pass Details

Date: 22 October 2020
Orbit: 886 x 1326 km, 63.4° (Epoch: 06 November)

Event Time Altitude Azimuth Distance (km) Brightness Sun altitude
Rises 03:20:55 0° 329° (NNW) 3,821 7.2 -40.6°
Reaches altitude 10° 03:23:36 10° 336° (NNW) 2,929 6.4 -41.1°
Enters shadow 03:26:09 23° 349° (NNW) 2,174 5.5 -41.5°
